When you browse on this site, cookies collect data to enhance your experience and personalize the content and advertising you see.
Visit our Privacy Policy to learn more. By continuing to use the site, you agree to this use of cookies and data.
  • In Sweden
  • List of Countries
  • For 7 days
  • Water Temperature
  • Weather Map
  • Weather Widgets
  • user-avatar
    Login

    Hourly Weather Tapachula

    Today, 26 February, Wednesday

    Time Temperature Precipitation Wind Pressure Humidity
    00:00 +25°C° 0 mm 1 mps 748 mmHg 88%
    01:00 +24°C° 0 mm 1 mps 748 mmHg 87%
    02:00 +24°C° 0 mm 1 mps 747 mmHg 87%
    03:00 +24°C° 0 mm 1 mps 747 mmHg 86%
    04:00 +23°C° 0 mm 1 mps 747 mmHg 85%
    05:00 +23°C° 0 mm 1 mps 747 mmHg 83%
    06:00 +23°C° 0 mm 1 mps 747 mmHg 82%
    07:00 +25°C° 0 mm 1 mps 748 mmHg 73%
    08:00 +28°C° 0 mm 2 mps 748 mmHg 64%
    09:00 +30°C° 0 mm 2 mps 749 mmHg 56%
    10:00 +33°C° 0 mm 3 mps 749 mmHg 51%
    11:00 +34°C° 0 mm 4 mps 748 mmHg 47%
    12:00 +36°C° 0 mm 5 mps 748 mmHg 43%
    13:00 +35°C° 0 mm 5 mps 748 mmHg 47%
    14:00 +35°C° 0 mm 5 mps 747 mmHg 51%
    15:00 +34°C° 0 mm 5 mps 747 mmHg 56%
    16:00 +32°C° 0.1 mm 4 mps 747 mmHg 61%
    17:00 +30°C° 0.1 mm 4 mps 747 mmHg 66%
    18:00 +29°C° 0.1 mm 3 mps 747 mmHg 71%
    19:00 +28°C° 0 mm 3 mps 748 mmHg 76%
    20:00 +27°C° 0 mm 2 mps 748 mmHg 80%
    21:00 +26°C° 0 mm 1 mps 749 mmHg 84%
    22:00 +26°C° 0 mm 1 mps 749 mmHg 83%
    23:00 +25°C° 0 mm 1 mps 749 mmHg 81%

    Tomorrow, 27 February, Thursday

    Time Temperature Precipitation Wind Pressure Humidity
    00:00 +25°C° 0 mm 1 mps 749 mmHg 79%
    01:00 +25°C° 0 mm 1 mps 749 mmHg 79%
    02:00 +25°C° 0 mm 1 mps 749 mmHg 79%
    03:00 +25°C° 0 mm 1 mps 748 mmHg 79%
    04:00 +25°C° 0 mm 1 mps 749 mmHg 78%
    05:00 +25°C° 0 mm 1 mps 749 mmHg 76%
    06:00 +25°C° 0 mm 1 mps 749 mmHg 74%
    07:00 +27°C° 0 mm 1 mps 749 mmHg 66%
    08:00 +29°C° 0 mm 1 mps 750 mmHg 57%
    09:00 +32°C° 0 mm 1 mps 751 mmHg 49%
    10:00 +34°C° 0 mm 2 mps 751 mmHg 45%
    11:00 +35°C° 0 mm 3 mps 750 mmHg 42%
    12:00 +37°C° 0 mm 4 mps 750 mmHg 38%
    13:00 +36°C° 0 mm 4 mps 749 mmHg 42%
    14:00 +35°C° 0 mm 4 mps 749 mmHg 46%
    15:00 +34°C° 0 mm 4 mps 748 mmHg 50%
    16:00 +33°C° 0 mm 3 mps 748 mmHg 56%
    17:00 +30°C° 0 mm 3 mps 748 mmHg 61%
    18:00 +29°C° 0 mm 2 mps 749 mmHg 67%
    19:00 +28°C° 0 mm 2 mps 749 mmHg 67%
    20:00 +27°C° 0 mm 2 mps 750 mmHg 68%
    21:00 +27°C° 0 mm 1 mps 751 mmHg 68%
    22:00 +27°C° 0 mm 1 mps 751 mmHg 65%
    23:00 +26°C° 0 mm 1 mps 751 mmHg 61%

    Day after tomorrow, 28 February, Friday

    Time Temperature Precipitation Wind Pressure Humidity
    00:00 +26°C° 0 mm 1 mps 751 mmHg 58%
    01:00 +26°C° 0 mm 1 mps 750 mmHg 58%
    02:00 +26°C° 0 mm 1 mps 750 mmHg 57%
    03:00 +25°C° 0 mm 2 mps 749 mmHg 56%
    04:00 +25°C° 0 mm 1 mps 750 mmHg 55%
    05:00 +25°C° 0 mm 1 mps 750 mmHg 54%
    06:00 +24°C° 0 mm 1 mps 750 mmHg 54%
    07:00 +27°C° 0 mm 1 mps 750 mmHg 49%
    08:00 +29°C° 0 mm 1 mps 751 mmHg 44%
    09:00 +32°C° 0 mm 1 mps 751 mmHg 40%
    10:00 +34°C° 0 mm 2 mps 751 mmHg 38%
    11:00 +35°C° 0 mm 3 mps 751 mmHg 36%
    12:00 +37°C° 0 mm 4 mps 750 mmHg 34%
    13:00 +36°C° 0 mm 4 mps 750 mmHg 36%
    14:00 +36°C° 0 mm 4 mps 749 mmHg 37%
    15:00 +35°C° 0 mm 4 mps 748 mmHg 39%
    16:00 +34°C° 0 mm 3 mps 749 mmHg 45%
    17:00 +31°C° 0 mm 3 mps 749 mmHg 52%
    18:00 +29°C° 0 mm 2 mps 749 mmHg 58%
    19:00 +28°C° 0 mm 1 mps 750 mmHg 61%
    20:00 +27°C° 0 mm 1 mps 751 mmHg 64%
    21:00 +26°C° 0 mm 1 mps 751 mmHg 67%
    22:00 +26°C° 0 mm 1 mps 751 mmHg 65%
    23:00 +26°C° 0 mm 1 mps 751 mmHg 63%

    29 February, Saturday

    Time Temperature Precipitation Wind Pressure Humidity
    00:00 +25°C° 0 mm 1 mps 751 mmHg 61%
    01:00 +25°C° 0 mm 2 mps 751 mmHg 59%
    02:00 +25°C° 0 mm 2 mps 750 mmHg 56%
    03:00 +25°C° 0 mm 2 mps 750 mmHg 53%
    04:00 +25°C° 0 mm 2 mps 750 mmHg 52%
    05:00 +25°C° 0 mm 2 mps 750 mmHg 50%
    06:00 +25°C° 0 mm 2 mps 751 mmHg 48%
    07:00 +27°C° 0 mm 2 mps 751 mmHg 42%
    08:00 +30°C° 0 mm 1 mps 751 mmHg 36%
    09:00 +33°C° 0 mm 1 mps 752 mmHg 30%
    10:00 +35°C° 0 mm 2 mps 751 mmHg 29%
    11:00 +36°C° 0 mm 3 mps 751 mmHg 29%
    12:00 +37°C° 0 mm 4 mps 750 mmHg 29%
    13:00 +36°C° 0 mm 4 mps 749 mmHg 32%
    14:00 +36°C° 0 mm 4 mps 749 mmHg 35%
    15:00 +35°C° 0 mm 4 mps 748 mmHg 38%
    16:00 +34°C° 0 mm 3 mps 748 mmHg 44%
    17:00 +31°C° 0 mm 3 mps 748 mmHg 49%
    18:00 +29°C° 0 mm 2 mps 749 mmHg 55%
    19:00 +28°C° 0 mm 2 mps 749 mmHg 58%
    20:00 +27°C° 0 mm 1 mps 750 mmHg 61%
    21:00 +26°C° 0 mm 1 mps 750 mmHg 65%
    22:00 +25°C° 0 mm 1 mps 750 mmHg 63%
    23:00 +25°C° 0 mm 2 mps 750 mmHg 60%

    1 March, Sunday

    Time Temperature Precipitation Wind Pressure Humidity
    00:00 +25°C° 0 mm 2 mps 750 mmHg 58%
    01:00 +25°C° 0 mm 2 mps 750 mmHg 57%
    02:00 +25°C° 0 mm 1 mps 749 mmHg 55%
    03:00 +25°C° 0 mm 1 mps 748 mmHg 53%
    04:00 +24°C° 0 mm 1 mps 749 mmHg 53%
    05:00 +24°C° 0 mm 1 mps 749 mmHg 52%
    06:00 +24°C° 0 mm 1 mps 749 mmHg 52%
    07:00 +27°C° 0 mm 1 mps 749 mmHg 48%
    08:00 +29°C° 0 mm 1 mps 750 mmHg 45%
    09:00 +32°C° 0 mm 2 mps 750 mmHg 41%
    10:00 +34°C° 0 mm 2 mps 750 mmHg 41%
    11:00 +35°C° 0 mm 3 mps 749 mmHg 41%
    12:00 +36°C° 0 mm 4 mps 749 mmHg 41%
    13:00 +36°C° 0.1 mm 4 mps 748 mmHg 46%
    14:00 +35°C° 0.1 mm 4 mps 747 mmHg 51%
    15:00 +34°C° 0.1 mm 4 mps 746 mmHg 56%
    16:00 +33°C° 0.1 mm 3 mps 746 mmHg 62%
    17:00 +30°C° 0.1 mm 2 mps 747 mmHg 67%
    18:00 +29°C° 0.1 mm 2 mps 747 mmHg 73%
    19:00 +28°C° 0 mm 1 mps 747 mmHg 75%
    20:00 +27°C° 0 mm 1 mps 748 mmHg 77%
    21:00 +25°C° 0 mm 1 mps 748 mmHg 80%
    22:00 +25°C° 0 mm 1 mps 748 mmHg 74%
    23:00 +25°C° 0 mm 1 mps 748 mmHg 68%

    2 March, Monday

    Time Temperature Precipitation Wind Pressure Humidity
    00:00 +25°C° 0 mm 2 mps 748 mmHg 62%
    01:00 +25°C° 0 mm 1 mps 748 mmHg 57%
    02:00 +25°C° 0 mm 1 mps 747 mmHg 52%
    03:00 +25°C° 0 mm 1 mps 747 mmHg 48%
    04:00 +25°C° 0 mm 1 mps 747 mmHg 46%
    05:00 +25°C° 0 mm 1 mps 747 mmHg 44%
    06:00 +25°C° 0 mm 1 mps 747 mmHg 42%
    07:00 +27°C° 0 mm 1 mps 748 mmHg 42%
    08:00 +29°C° 0 mm 1 mps 748 mmHg 42%
    09:00 +31°C° 0 mm 2 mps 749 mmHg 42%
    10:00 +34°C° 0 mm 2 mps 748 mmHg 43%
    11:00 +35°C° 0 mm 3 mps 748 mmHg 44%
    12:00 +36°C° 0 mm 4 mps 747 mmHg 44%
    13:00 +35°C° 0.1 mm 4 mps 747 mmHg 50%
    14:00 +34°C° 0.1 mm 4 mps 746 mmHg 56%
    15:00 +33°C° 0.1 mm 4 mps 745 mmHg 62%
    16:00 +31°C° 0.1 mm 3 mps 745 mmHg 66%
    17:00 +30°C° 0.1 mm 2 mps 746 mmHg 70%
    18:00 +29°C° 0.1 mm 1 mps 746 mmHg 75%
    19:00 +28°C° 0 mm 1 mps 746 mmHg 78%
    20:00 +27°C° 0 mm 1 mps 747 mmHg 81%
    21:00 +26°C° 0 mm 1 mps 748 mmHg 84%
    22:00 +25°C° 0 mm 1 mps 748 mmHg 84%
    23:00 +25°C° 0 mm 1 mps 748 mmHg 83%
    Show more